Probability
26 29 16 3 0 0 0 0 0 0 0 0 0 0 0 0 0 0 0 6 19 35 55 58 74 77 81 81 84 84 84 77 77 84 77 77 77 74 74 74 74 65 77 71 74 74 71 77 71
19 23 6 3 0 0 0 0 0 0 0 0 0 0 3 6 3 0 3 16 32 39 45 58 77 81 74 77 77 84 84 77 74 81 81 74 77 74 71 74 71 71 68 77 74 61 61 65 65
23 19 10 0 0 0 0 0 0 0 0 0 0 0 0 3 3 3 6 16 26 32 45 65 74 81 77 74 84 84 77 71 71 74 84 77 74 77 71 81 68 65 68 74 61 58 58 61 58
16 6 0 0 0 0 0 0 0 0 0 0 0 0 0 6 6 6 10 23 26 35 52 61 77 77 84 81 81 84 81 84 81 77 74 77 81 77 74 71 77 68 61 65 61 55 58 55 65
0 0 0 0 0 0 0 0 0 0 0 0 0 0 0 6 6 6 16 19 29 29 48 61 81 81 84 84 87 87 87 81 84 81 81 81 77 74 74 68 65 65 55 55 52 48 42 39 35
3 0 0 0 0 0 0 0 0 0 0 0 0 0 3 6 6 6 6 10 23 26 45 58 77 81 84 90 87 90 90 84 87 81 84 81 77 77 74 71 68 61 52 55 48 45 35 35 42
3 0 0 0 0 0 0 0 0 0 0 0 0 0 0 0 3 3 3 13 23 23 32 42 52 61 74 84 84 90 90 87 84 74 71 81 68 68 61 71 61 68 58 58 48 32 29 35 35
0 0 0 0 0 0 0 0 0 0 0 0 0 0 3 0 3 3 0 0 23 23 23 32 39 48 48 52 84 81 74 84 84 71 74 71 61 55 61 65 61 48 35 39 35 32 32 39 35
0 0 0 0 0 0 0 0 0 0 0 0 0 0 0 3 3 0 0 3 3 13 23 19 26 26 29 39 58 58 61 68 68 55 65 55 23 23 32 48 48 52 42 42 42 29 32 32 35
0 0 0 0 0 0 0 0 0 0 0 0 0 0 3 3 3 0 0 0 3 3 6 3 6 6 13 32 32 32 29 23 19 13 19 13 6 6 32 42 52 48 48 48 39 42 35 29 13
0 0 0 0 0 0 0 0 0 0 0 0 0 3 3 3 0 0 0 0 0 0 6 6 3 3 0 0 16 10 6 10 3 3 0 0 0 0 6 10 19 19 29 23 23 26 26 19 13
0 0 0 0 0 0 0 0 0 0 0 0 0 3 3 0 0 0 0 0 0 0 0 3 3 3 3 3 3 3 3 3 6 3 0 0 0 0 0 3 3 3 3 0 3 3 3 3 6
0 0 0 0 0 0 0 0 0 0 0 0 0 3 3 3 0 0 0 0 3 0 0 0 3 3 3 3 3 3 0 0 3 3 6 0 0 0 0 0 3 3 0 0 0 0 0 0 0
0 0 0 0 0 0 0 0 0 0 0 0 0 3 3 3 3 0 0 0 3 0 0 0 3 3 3 0 0 0 0 0 0 0 0 0 0 0 0 0 0 3 0 0 0 0 0 0 3
0 0 0 0 0 0 0 0 0 0 0 0 0 0 0 0 0 0 0 0 0 0 0 0 6 3 3 0 0 0 0 0 0 0 0 0 0 0 0 0 0 0 0 0 0 0 0 3 3
0 0 0 0 0 0 0 0 0 0 0 0 0 0 0 0 0 0 0 0 3 3 0 0 10 10 0 6 10 10 0 0 0 0 0 0 0 0 0 3 0 0 0 0 3 0 3 3 3
0 0 0 0 0 0 0 0 0 0 0 0 0 0 0 0 0 0 3 3 3 0 0 0 6 13 10 10 10 6 3 3 3 3 3 6 10 6 3 0 0 0 3 3 3 6 3 6 6
0 0 0 0 0 0 0 0 0 0 0 0 0 0 0 0 0 3 3 6 0 0 0 0 13 16 10 16 16 13 6 10 13 3 3 3 6 3 0 0 0 3 3 6 6 6 6 6 10
0 0 0 0 0 0 0 0 0 0 0 0 0 0 0 0 0 3 6 6 0 0 0 0 10 13 10 13 13 13 10 13 13 10 10 3 6 10 10 10 6 6 6 6 6 6 6 3 3
0 0 0 0 0 0 0 0 0 0 3 3 3 3 0 0 3 6 10 6 3 0 0 3 10 10 10 13 10 10 13 13 13 13 10 13 13 13 16 13 6 6 6 6 6 6 3 3 3
0 0 0 0 0 0 0 0 0 0 0 0 3 3 3 0 3 10 13 3 3 3 3 10 10 16 10 10 16 19 16 13 10 10 13 13 19 19 16 13 6 10 10 6 3 3 3 3 3
0 0 0 0 0 0 0 0 0 0 0 0 0 0 3 3 6 10 10 3 0 3 6 10 13 19 23 16 19 23 19 19 13 13 10 10 13 23 19 10 13 13 13 10 6 6 3 3 3
0 0 0 0 0 0 0 0 0 0 0 0 3 3 3 6 13 13 13 3 0 16 13 10 16 23 23 26 26 19 19 16 13 10 10 13 6 16 19 10 13 13 16 16 13 3 3 3 3
0 0 0 0 0 0 0 0 0 0 0 0 3 3 3 6 16 13 10 6 6 13 13 19 16 19 19 26 26 23 23 23 16 10 10 10 10 13 19 19 19 13 16 19 10 6 3 3 3
0 0 0 0 0 0 0 0 0 0 0 0 3 3 6 10 10 10 6 6 3 23 23 19 19 23 19 26 23 29 26 26 16 10 10 10 10 13 16 23 23 23 23 19 13 13 13 3 3
0 0 0 0 0 0 0 0 0 0 0 10 6 13 13 6 10 6 6 6 6 19 23 19 16 23 23 26 26 26 29 29 16 13 16 13 13 13 19 23 23 23 16 16 10 3 6 6 6
0 0 0 0 0 0 0 0 0 0 3 10 16 13 13 16 13 6 6 10 6 19 16 23 26 29 29 29 29 29 29 23 26 19 16 13 16 16 19 19 19 19 16 13 10 6 3 6 0
0 0 0 0 0 0 0 0 0 0 0 6 13 13 13 19 16 16 13 13 10 16 16 23 29 29 26 29 29 32 26 23 26 26 26 26 19 23 19 23 19 16 13 10 10 6 3 0 0
0 0 0 0 0 0 0 0 0 0 3 6 13 19 16 16 19 16 13 13 10 10 23 23 29 26 29 26 29 39 29 26 26 29 26 26 23 23 19 19 19 13 13 10 10 6 3 6 3
0 0 0 0 0 0 0 0 0 3 3 10 16 19 19 26 23 16 13 13 6 10 19 23 23 29 29 26 35 39 32 26 26 26 26 26 19 23 19 13 16 19 16 10 6 6 6 10 10
Height
5879 5877 5876 5874 5872 5870 5867 5866 5864 5863 5862 5861 5859 5858 5858 5857 5858 5859 5856 5854 5853 5853 5853 5853 5853 5854 5854 5854 5855 5855 5856 5857 5858 5859 5860 5861 5863 5865 5866 5867 5869 5870 5872 5873 5874 5875 5876 5877 5878
5881 5880 5879 5877 5874 5872 5870 5868 5865 5864 5864 5862 5861 5860 5859 5858 5858 5857 5856 5855 5855 5854 5854 5854 5854 5855 5855 5855 5856 5856 5857 5858 5859 5860 5862 5863 5864 5866 5867 5868 5870 5871 5872 5874 5875 5876 5877 5878 5880
5884 5883 5882 5879 5876 5874 5872 5870 5868 5866 5865 5864 5862 5861 5861 5860 5859 5858 5857 5857 5856 5856 5855 5856 5856 5856 5856 5857 5857 5858 5859 5860 5861 5862 5863 5864 5866 5867 5869 5870 5871 5873 5874 5875 5876 5877 5878 5880 5881
5887 5886 5884 5882 5879 5877 5874 5872 5870 5868 5867 5865 5864 5863 5862 5862 5861 5860 5859 5858 5858 5858 5857 5857 5858 5858 5858 5859 5859 5859 5860 5861 5862 5863 5865 5866 5867 5869 5870 5872 5873 5874 5875 5876 5878 5879 5880 5881 5882
5890 5888 5886 5883 5881 5879 5877 5875 5872 5870 5869 5868 5867 5865 5864 5864 5863 5861 5861 5860 5860 5859 5859 5859 5859 5860 5860 5860 5860 5861 5862 5863 5863 5865 5866 5867 5869 5870 5871 5873 5874 5875 5876 5878 5879 5880 5881 5882 5883
5893 5890 5888 5885 5883 5881 5879 5877 5875 5873 5872 5871 5870 5868 5867 5866 5865 5864 5863 5862 5862 5861 5861 5861 5861 5861 5861 5862 5862 5863 5863 5864 5865 5866 5867 5869 5870 5871 5873 5874 5875 5876 5878 5879 5880 5881 5882 5883 5884
5895 5893 5890 5888 5886 5884 5882 5880 5878 5876 5875 5874 5872 5871 5869 5868 5867 5866 5865 5864 5864 5863 5863 5863 5863 5863 5863 5863 5864 5864 5865 5865 5866 5867 5869 5870 5871 5872 5874 5875 5877 5878 5879 5880 5881 5882 5884 5885 5885
5896 5895 5892 5890 5888 5887 5885 5882 5881 5880 5878 5877 5875 5873 5872 5871 5869 5868 5867 5867 5866 5866 5865 5865 5865 5865 5865 5865 5866 5866 5867 5867 5868 5868 5870 5871 5872 5874 5875 5877 5878 5879 5880 5881 5882 5883 5885 5886 5887
5898 5898 5895 5893 5891 5890 5888 5886 5885 5883 5882 5880 5878 5876 5875 5873 5872 5871 5870 5869 5868 5868 5868 5868 5868 5868 5868 5867 5868 5868 5869 5869 5870 5871 5872 5873 5874 5875 5876 5878 5879 5880 5881 5882 5883 5885 5886 5887 5888
5900 5899 5898 5896 5894 5893 5891 5889 5888 5886 5885 5883 5881 5879 5878 5876 5875 5873 5872 5872 5871 5871 5870 5870 5870 5870 5870 5870 5870 5870 5870 5871 5872 5873 5874 5875 5875 5876 5878 5879 5880 5881 5882 5883 5885 5886 5887 5888 5889
5902 5901 5900 5899 5897 5896 5894 5893 5891 5889 5888 5886 5884 5882 5881 5880 5878 5876 5875 5874 5874 5873 5873 5873 5873 5872 5872 5872 5872 5872 5873 5873 5873 5874 5875 5876 5877 5878 5879 5880 5881 5882 5883 5884 5885 5886 5888 5888 5889
5905 5904 5903 5901 5900 5898 5897 5896 5894 5893 5891 5889 5888 5886 5884 5883 5881 5879 5878 5877 5877 5876 5876 5875 5875 5875 5875 5875 5874 5874 5874 5875 5875 5875 5876 5877 5878 5879 5880 5881 5882 5883 5884 5885 5886 5887 5888 5889 5890
5906 5906 5905 5904 5902 5901 5900 5898 5897 5896 5894 5893 5891 5889 5887 5885 5884 5882 5881 5880 5879 5879 5878 5878 5877 5877 5877 5877 5876 5876 5876 5876 5876 5877 5877 5878 5879 5880 5881 5882 5882 5883 5885 5886 5887 5888 5888 5889 5890
5908 5908 5907 5906 5905 5903 5902 5901 5900 5899 5898 5896 5894 5893 5891 5889 5887 5885 5884 5883 5882 5881 5881 5881 5880 5880 5880 5879 5879 5879 5878 5878 5878 5879 5879 5879 5880 5881 5882 5883 5884 5885 5886 5887 5888 5888 5889 5889 5890
5909 5909 5909 5908 5907 5906 5905 5904 5902 5901 5900 5899 5898 5896 5894 5892 5890 5888 5887 5886 5885 5884 5884 5883 5883 5882 5882 5882 5881 5881 5881 5880 5881 5881 5881 5881 5882 5883 5883 5884 5885 5886 5887 5888 5888 5889 5889 5889 5890
5910 5910 5910 5910 5909 5908 5908 5907 5905 5904 5903 5902 5900 5899 5897 5895 5893 5891 5890 5889 5888 5887 5886 5886 5885 5885 5884 5884 5884 5884 5883 5883 5883 5883 5883 5884 5884 5885 5885 5886 5887 5887 5888 5888 5889 5889 5889 5889 5890
5910 5911 5911 5911 5911 5910 5909 5908 5907 5906 5905 5904 5903 5901 5899 5897 5896 5894 5892 5891 5890 5889 5889 5888 5887 5887 5887 5887 5886 5886 5885 5885 5885 5885 5885 5885 5886 5886 5887 5887 5888 5888 5889 5889 5889 5890 5889 5889 5889
5910 5911 5911 5912 5912 5911 5910 5909 5909 5908 5907 5906 5904 5903 5901 5899 5898 5896 5894 5893 5892 5891 5891 5890 5889 5889 5889 5888 5888 5888 5888 5888 5887 5887 5887 5887 5887 5888 5888 5888 5889 5889 5890 5890 5890 5890 5890 5889 5889
5909 5910 5911 5912 5912 5912 5911 5910 5910 5909 5908 5907 5906 5905 5903 5902 5900 5898 5897 5896 5894 5893 5892 5892 5891 5891 5890 5890 5890 5889 5889 5889 5889 5889 5889 5889 5889 5889 5889 5889 5889 5890 5890 5890 5890 5890 5889 5889 5889
5908 5909 5910 5911 5911 5911 5911 5911 5911 5910 5909 5908 5907 5906 5905 5903 5902 5900 5899 5898 5896 5895 5894 5893 5893 5892 5892 5891 5891 5891 5891 5891 5891 5890 5890 5890 5890 5890 5890 5890 5890 5890 5890 5890 5890 5889 5889 5889 5889
5907 5909 5909 5910 5911 5911 5911 5911 5911 5911 5910 5909 5908 5907 5906 5904 5903 5902 5900 5899 5898 5897 5896 5895 5894 5893 5893 5893 5892 5892 5892 5892 5892 5891 5891 5890 5890 5891 5891 5891 5891 5890 5890 5890 5890 5889 5889 5888 5888
5905 5907 5908 5909 5910 5910 5911 5911 5911 5910 5910 5909 5909 5908 5907 5906 5905 5903 5901 5900 5900 5899 5898 5897 5896 5895 5894 5894 5893 5893 5893 5893 5892 5892 5892 5891 5891 5891 5891 5891 5891 5891 5891 5890 5889 5889 5888 5888 5887
5903 5905 5906 5907 5908 5909 5909 5910 5911 5910 5910 5910 5909 5908 5908 5907 5906 5904 5902 5901 5900 5900 5899 5898 5897 5896 5895 5895 5895 5894 5894 5893 5893 5893 5892 5892 5892 5892 5892 5891 5891 5891 5891 5890 5889 5888 5888 5887 5886
5899 5902 5903 5904 5906 5907 5908 5909 5910 5909 5909 5909 5909 5909 5908 5907 5906 5904 5903 5902 5901 5901 5900 5899 5898 5897 5896 5896 5895 5895 5894 5894 5894 5893 5893 5892 5892 5892 5892 5892 5891 5891 5890 5890 5889 5888 5887 5886 5885
5896 5899 5900 5901 5903 5905 5906 5907 5909 5908 5908 5908 5908 5908 5908 5907 5906 5905 5903 5902 5902 5901 5901 5900 5899 5898 5897 5896 5896 5895 5895 5895 5894 5894 5894 5893 5893 5892 5892 5892 5891 5891 5890 5889 5888 5887 5886 5885 5884
5892 5895 5898 5899 5900 5902 5903 5904 5907 5907 5907 5907 5907 5907 5907 5906 5905 5904 5903 5902 5902 5902 5901 5900 5899 5898 5897 5896 5895 5895 5895 5895 5895 5894 5894 5893 5893 5892 5892 5891 5891 5890 5889 5889 5888 5887 5885 5884 5883
5888 5891 5894 5895 5896 5898 5900 5902 5904 5904 5905 5905 5906 5906 5906 5905 5905 5904 5903 5902 5902 5901 5901 5901 5900 5899 5898 5897 5896 5895 5895 5895 5894 5894 5894 5893 5893 5892 5891 5891 5890 5889 5889 5887 5886 5885 5884 5883 5882
5884 5887 5889 5891 5892 5894 5896 5898 5901 5901 5902 5903 5904 5904 5904 5904 5903 5903 5902 5902 5901 5901 5901 5900 5900 5899 5898 5897 5896 5895 5894 5894 5894 5894 5894 5893 5892 5892 5891 5890 5889 5888 5887 5886 5885 5884 5883 5881 5880
5879 5882 5884 5886 5888 5890 5892 5897 5898 5899 5900 5901 5901 5902 5902 5902 5902 5902 5901 5901 5901 5900 5900 5899 5899 5898 5897 5896 5896 5895 5894 5893 5893 5893 5893 5892 5892 5891 5890 5889 5888 5887 5886 5885 5884 5882 5881 5880 5878
5874 5877 5880 5882 5884 5886 5888 5894 5895 5896 5897 5898 5898 5899 5899 5900 5900 5900 5899 5899 5899 5899 5899 5899 5898 5897 5896 5896 5895 5894 5893 5892 5893 5892 5892 5891 5891 5890 5889 5888 5887 5886 5885 5883 5882 5880 5879 5878 5876
Wind_Speed
22 22 21 20 19 18 18 17 17 17 15 14 13 12 12 11 10 9 9 9 8 8 8 8 8 8 8 8 9 10 9 9 9 9 10 10 9 9 9 10 10 9 9 9 9 10 10 10 9
22 22 21 20 20 19 19 19 18 17 16 15 14 13 13 12 10 10 9 9 8 7 8 9 9 9 9 9 9 10 10 10 10 10 10 9 9 10 10 10 10 9 9 9 9 10 10 9 8
21 21 20 20 20 20 20 20 19 18 16 16 15 14 13 12 11 10 10 9 8 8 9 9 9 9 9 9 9 10 10 10 10 11 11 10 10 10 9 9 9 9 9 10 9 9 10 9 8
20 20 20 20 20 20 20 20 20 19 18 17 16 15 13 12 11 11 10 9 8 9 10 10 9 9 9 9 9 10 10 10 10 11 11 10 10 9 9 9 9 9 10 10 9 9 9 8 8
19 20 21 20 20 20 20 20 21 20 19 17 16 15 14 12 11 11 10 10 9 10 10 10 10 9 9 9 10 10 9 9 10 10 10 9 9 9 9 9 9 10 9 9 9 9 10 8 8
19 20 20 21 21 21 21 21 21 20 19 17 16 15 14 13 12 11 11 11 11 11 11 11 10 10 10 10 9 9 9 9 10 10 9 9 9 8 8 8 9 9 9 9 9 9 9 8 8
19 19 20 21 22 21 21 21 21 19 19 18 17 16 14 13 12 12 11 12 12 12 11 11 11 10 10 11 10 10 10 11 10 10 9 8 8 8 8 8 8 9 9 9 9 9 9 8 8
17 18 20 21 22 21 21 21 21 19 19 18 18 17 15 13 13 13 13 13 12 12 12 11 11 10 11 11 10 10 10 10 10 10 9 9 8 8 8 8 8 8 9 9 9 9 8 8 7
16 17 19 21 21 21 21 21 20 19 19 18 18 18 17 15 14 13 14 13 12 13 12 12 11 11 11 11 11 10 10 9 10 10 9 9 9 8 8 8 8 7 7 8 8 8 7 7 6
16 17 19 19 20 21 21 21 20 19 19 18 18 18 18 16 15 14 14 14 13 13 13 12 12 12 12 11 11 10 10 9 9 8 8 8 8 8 7 7 7 7 7 7 7 7 7 6 5
15 16 17 18 19 20 21 21 20 19 19 18 17 17 16 16 15 14 14 14 14 14 13 12 12 12 12 11 10 10 9 8 8 8 7 7 8 7 7 6 7 7 7 7 7 6 5 5 4
12 14 16 17 19 19 20 21 20 20 19 18 16 16 16 15 15 14 14 13 13 13 13 12 12 12 11 11 10 10 9 9 8 8 7 7 7 7 6 6 6 6 6 7 6 5 4 4 3
10 12 14 15 17 18 19 20 20 20 19 17 16 15 15 15 14 14 13 13 12 12 13 13 12 11 11 11 10 10 9 8 9 8 7 7 7 7 6 5 5 6 6 5 4 4 3 2 2
8 10 11 12 14 16 18 19 19 19 18 16 16 16 15 15 14 13 13 12 12 12 12 12 12 11 11 10 10 9 10 10 10 9 9 8 7 7 7 7 7 6 5 4 4 3 3 2 1
6 7 8 10 12 14 15 17 18 17 17 16 15 15 15 15 14 14 14 12 12 12 12 12 12 11 11 11 11 10 10 10 10 9 9 9 8 8 8 7 6 5 4 4 4 4 3 2 2
3 4 6 8 10 12 12 14 15 15 15 15 15 14 14 14 14 13 13 13 12 12 12 12 12 11 11 11 11 10 10 10 9 9 9 9 8 8 7 6 5 5 4 4 4 3 2 1 1
3 2 3 5 8 10 10 12 12 12 13 13 14 14 14 13 13 13 12 12 12 11 11 11 11 11 10 11 10 10 10 10 9 9 9 8 8 7 6 5 5 4 4 4 3 2 1 1 0
4 2 1 2 4 6 8 10 11 10 11 11 11 12 12 12 12 12 12 11 11 10 10 10 10 10 10 10 9 9 9 8 8 8 8 8 7 6 6 5 4 4 3 3 2 1 1 1 2
7 5 4 2 0 3 5 7 8 8 10 10 10 9 10 11 11 10 10 11 11 10 9 9 10 9 9 9 8 8 8 7 7 7 7 6 6 5 5 4 4 3 2 2 1 1 1 2 2
10 8 6 4 2 1 4 5 6 8 8 8 9 8 9 9 9 9 9 10 10 10 9 8 9 9 9 8 8 7 7 6 6 5 5 5 4 4 3 3 3 3 3 2 2 2 2 3 4
13 11 9 6 5 3 3 3 4 6 6 7 7 7 8 7 8 8 8 8 9 9 9 8 8 8 8 8 7 7 7 6 5 5 5 4 4 4 3 3 3 3 2 2 3 3 3 3 4
15 13 12 9 8 6 5 3 4 5 5 6 6 6 7 6 6 7 6 7 7 8 8 8 7 7 7 7 7 7 7 6 5 5 5 4 4 4 4 3 3 2 2 3 4 4 4 4 5
18 16 15 13 11 10 8 7 5 5 5 5 6 6 5 5 5 6 5 5 5 6 6 7 7 6 6 6 6 6 6 6 5 5 5 5 4 4 3 3 2 2 3 4 4 5 5 5 5
21 20 19 17 15 12 10 9 6 6 6 6 6 6 5 4 4 4 4 4 4 4 5 6 6 6 6 5 5 5 5 5 4 5 5 5 4 4 3 3 3 3 3 4 5 5 6 6 7
24 23 22 20 18 15 12 11 8 8 7 6 6 7 6 5 4 4 3 3 3 3 4 4 5 5 5 4 4 5 5 5 4 4 4 4 3 3 3 3 3 4 4 5 6 6 7 7 8
25 25 23 22 20 18 16 14 11 10 9 8 7 7 7 6 5 3 3 2 2 2 3 4 4 4 4 4 4 4 4 4 4 4 3 4 3 3 3 4 4 4 5 6 7 8 8 8 9
27 26 25 24 22 21 19 16 13 13 12 10 8 7 7 6 5 4 4 3 2 2 2 3 3 3 3 3 3 3 3 3 3 3 4 4 3 4 4 5 5 6 6 7 7 8 8 8 9
29 27 27 26 25 24 22 18 14 12 11 11 9 8 8 8 6 6 5 4 3 2 2 3 3 2 2 2 2 2 2 2 2 3 4 4 4 5 5 6 7 7 7 8 9 9 8 8 9
30 29 28 28 27 25 24 19 15 13 13 12 11 10 10 10 9 8 7 7 5 4 3 3 4 3 2 2 3 3 3 3 2 2 4 5 5 6 6 6 7 8 8 8 9 9 10 10 10
31 30 29 29 28 27 25 21 17 16 15 15 13 11 11 11 11 10 9 8 8 6 6 5 5 5 4 4 4 4 4 3 4 4 4 5 6 6 7 7 8 9 9 9 10 10 10 11 11
Wind_Direction
58 58 56 52 52 51 51 52 53 51 51 51 53 54 54 56 58 62 64 72 78 88 96 92 91 95 99 103 103 107 110 110 108 108 115 122 129 132 131 128 128 129 133 132 133 135 133 129 126
57 57 55 54 53 52 51 51 51 49 48 49 51 52 53 54 58 61 65 71 74 83 95 96 91 93 100 100 105 108 109 110 109 110 112 116 120 123 123 120 123 129 133 131 136 138 135 130 126
57 56 55 54 54 53 52 51 51 49 47 47 47 48 49 52 56 60 68 72 75 83 91 96 93 98 99 99 105 108 106 107 110 113 113 114 116 118 121 121 122 129 133 130 132 138 136 132 130
56 56 55 52 53 54 53 52 52 52 48 46 46 49 51 54 56 62 72 76 78 85 89 94 96 97 96 101 106 110 110 109 113 117 116 116 116 118 121 125 123 128 131 130 131 136 136 135 136
56 54 53 53 55 54 54 53 52 52 48 46 48 51 53 54 57 64 75 79 82 86 87 91 96 96 95 99 107 108 112 115 118 121 120 120 120 123 123 125 125 130 132 132 135 135 133 134 135
57 53 53 55 55 53 52 52 51 51 49 47 49 52 54 54 58 67 76 81 82 83 84 87 92 95 96 97 103 107 110 119 120 120 121 122 122 126 129 128 130 131 134 135 137 132 129 128 129
57 54 54 54 54 52 52 52 51 51 49 47 49 52 54 57 61 69 73 78 84 84 83 86 88 88 92 95 101 107 110 111 114 119 120 124 125 127 138 136 135 132 135 136 136 132 130 129 131
59 55 56 56 55 52 51 52 50 51 50 48 48 50 53 56 61 69 72 77 81 83 85 85 86 85 86 94 98 103 110 110 112 117 123 127 126 124 130 138 140 132 133 138 140 138 134 131 130
62 58 59 58 56 53 53 53 50 51 51 50 49 50 53 57 63 69 72 77 79 81 83 82 83 83 85 93 97 100 108 110 114 117 121 123 123 125 125 135 137 131 132 140 143 144 143 139 132
63 60 62 60 58 55 54 53 52 51 50 50 50 50 54 57 62 69 72 75 77 80 80 81 83 83 85 90 93 94 100 105 110 113 120 121 119 119 120 125 138 138 136 140 145 145 149 151 148
66 63 65 63 62 58 55 52 51 50 49 50 51 52 53 55 60 67 72 74 75 77 79 80 81 83 86 89 91 92 92 99 108 111 116 123 121 120 121 120 136 143 144 143 144 146 146 151 161
72 68 68 65 64 60 56 53 51 50 50 50 51 52 53 55 58 63 68 72 75 76 77 77 80 79 83 86 85 85 88 89 101 114 120 126 123 124 126 126 131 142 147 147 148 149 149 150 155
85 77 73 68 62 60 57 52 50 49 49 50 50 50 52 53 55 61 65 68 72 75 76 74 76 78 79 81 81 78 81 82 92 98 110 117 121 122 120 123 130 133 137 140 149 143 137 141 136
98 88 79 71 63 58 57 51 48 46 47 48 48 49 53 54 54 59 64 67 69 72 75 75 74 76 77 75 73 74 77 83 89 91 97 102 107 113 118 117 115 115 122 132 132 141 143 159 174
110 92 81 71 61 54 54 53 47 43 42 44 44 46 49 54 58 62 65 68 71 74 74 71 72 74 78 78 77 79 81 81 83 89 92 92 96 98 101 105 107 108 109 112 122 125 134 145 158
134 99 76 66 58 55 52 52 47 41 38 39 40 43 46 51 56 61 64 68 74 75 73 71 72 74 78 80 80 82 80 82 86 87 90 91 94 98 100 104 104 105 103 98 97 103 104 120 105
173 126 83 67 56 54 51 47 44 40 38 36 36 39 44 48 51 56 61 65 72 71 70 72 73 74 77 79 80 80 79 81 87 90 90 90 92 99 102 97 106 106 99 96 92 82 78 96 355
210 207 187 86 51 50 50 42 39 37 34 31 32 37 42 47 49 54 59 61 64 64 66 71 73 73 74 76 76 76 76 79 82 86 89 91 92 93 95 95 99 101 95 88 85 69 43 351 306
223 227 218 213 43 37 40 41 39 33 26 26 26 30 36 42 47 50 56 58 60 60 64 68 72 74 74 75 74 72 71 73 75 83 86 89 87 87 88 90 84 84 87 70 34 13 357 346 320
229 236 234 231 241 350 20 31 31 22 22 19 19 24 29 37 44 48 53 58 58 58 62 68 70 73 75 74 71 70 71 71 71 76 77 80 80 80 79 80 70 63 67 48 19 352 340 333 322
231 236 238 248 253 272 327 3 8 10 8 11 14 14 19 32 39 43 47 55 57 57 60 64 65 68 70 69 68 69 68 68 69 69 67 73 78 75 69 73 67 61 46 22 2 345 335 330 326
230 234 238 243 256 269 283 316 334 346 353 5 7 7 7 18 30 37 43 50 55 55 56 57 59 62 65 68 67 64 62 62 62 60 60 64 69 67 63 61 54 38 15 359 354 349 336 324 320
231 235 238 242 252 264 275 290 308 324 339 343 349 353 355 0 17 29 35 42 51 52 57 54 51 52 57 62 60 59 57 59 58 56 54 56 58 57 55 48 31 6 351 343 343 339 335 329 322
232 235 239 242 248 256 269 278 285 293 313 319 326 329 329 333 350 10 19 26 41 50 51 47 44 44 46 55 57 59 53 51 54 54 50 50 48 43 40 27 11 354 342 334 328 324 325 324 321
231 234 239 242 245 253 263 272 278 281 289 293 301 308 306 305 321 347 4 18 35 40 35 39 38 38 39 40 45 49 50 51 49 51 49 47 39 29 20 2 350 344 341 335 327 322 321 320 319
233 237 242 247 251 256 262 267 270 271 274 281 286 296 298 294 300 323 347 353 9 18 14 25 29 31 31 30 31 35 45 48 43 39 36 31 24 13 354 345 332 329 330 326 323 322 321 319 319
233 236 242 248 252 256 259 265 268 269 268 269 277 285 289 282 288 308 327 318 322 339 1 13 15 18 16 18 19 20 28 33 27 21 18 13 4 356 350 339 330 327 325 323 320 318 316 314 313
232 236 240 244 249 252 256 261 262 264 263 268 272 271 273 270 279 293 308 302 285 298 315 336 340 347 1 6 7 360 349 359 356 359 3 2 0 354 349 345 336 332 331 327 322 321 319 318 317
232 235 239 243 248 251 256 257 257 260 263 264 267 270 270 269 273 280 290 291 285 281 286 300 308 313 321 332 330 323 314 322 328 333 340 341 339 340 340 340 336 330 326 328 326 321 316 313 313
233 236 239 242 247 252 257 259 258 258 263 263 263 266 269 267 267 267 275 285 277 277 283 287 288 295 300 306 311 312 313 314 312 310 312 319 323 325 329 330 328 324 321 322 322 318 315 311 311